Year,Month,Day,Hour,Minute,Value (Times are PST for temperature in C)
2019,03,20,00,00,14.10
2019,03,20,00,01,14.00
2019,03,20,00,02,13.90
2019,03,20,00,03,13.80
2019,03,20,00,04,13.80
2019,03,20,00,05,13.70
2019,03,20,00,06,13.70
2019,03,20,00,07,13.60
2019,03,20,00,08,13.60
2019,03,20,00,09,13.60
2019,03,20,00,10,13.60
2019,03,20,00,11,13.60
2019,03,20,00,12,13.60
2019,03,20,00,13,13.60
2019,03,20,00,14,13.70
2019,03,20,00,15,13.70
2019,03,20,00,16,13.60
2019,03,20,00,17,13.70
2019,03,20,00,18,13.70
2019,03,20,00,19,13.80
2019,03,20,00,20,13.80
2019,03,20,00,21,13.90
2019,03,20,00,22,14.10
2019,03,20,00,23,14.20
2019,03,20,00,24,14.30
2019,03,20,00,25,14.40
2019,03,20,00,26,14.50
2019,03,20,00,27,14.60
2019,03,20,00,28,14.70
2019,03,20,00,29,14.80
2019,03,20,00,30,14.80
2019,03,20,00,31,14.90
2019,03,20,00,32,14.90
2019,03,20,00,33,14.80
2019,03,20,00,34,14.80
2019,03,20,00,35,14.70
2019,03,20,00,36,14.70
2019,03,20,00,37,14.70
2019,03,20,00,38,14.70
2019,03,20,00,39,14.70
2019,03,20,00,40,14.70
2019,03,20,00,41,14.70
2019,03,20,00,42,14.70
2019,03,20,00,43,14.80
2019,03,20,00,44,14.80
2019,03,20,00,45,14.80
2019,03,20,00,46,14.80
2019,03,20,00,47,14.80
2019,03,20,00,48,14.80
2019,03,20,00,49,14.80
2019,03,20,00,50,14.80
2019,03,20,00,51,14.80
2019,03,20,00,52,14.80
2019,03,20,00,53,14.80
2019,03,20,00,54,14.80
2019,03,20,00,55,14.70
2019,03,20,00,56,14.70
2019,03,20,00,57,14.70
2019,03,20,00,58,14.60
2019,03,20,00,59,14.60
2019,03,20,01,00,14.50
2019,03,20,01,01,14.40
2019,03,20,01,02,14.40
2019,03,20,01,03,14.40
2019,03,20,01,04,14.40
2019,03,20,01,05,14.30
2019,03,20,01,06,14.30
2019,03,20,01,07,14.30
2019,03,20,01,08,14.30
2019,03,20,01,09,14.40
2019,03,20,01,10,14.50
2019,03,20,01,11,14.50
2019,03,20,01,12,14.60
2019,03,20,01,13,14.70
2019,03,20,01,14,14.70
2019,03,20,01,15,14.80
2019,03,20,01,16,14.80
2019,03,20,01,17,14.80
2019,03,20,01,18,14.80
2019,03,20,01,19,14.90
2019,03,20,01,20,14.90
2019,03,20,01,21,14.90
2019,03,20,01,22,14.90
2019,03,20,01,23,14.90
2019,03,20,01,24,15.00
2019,03,20,01,25,15.00
2019,03,20,01,26,15.10
2019,03,20,01,27,15.10
2019,03,20,01,28,15.10
2019,03,20,01,29,15.10
2019,03,20,01,30,15.10
2019,03,20,01,31,15.10
2019,03,20,01,32,15.10
2019,03,20,01,33,15.10
2019,03,20,01,34,15.10
2019,03,20,01,35,15.10
2019,03,20,01,36,15.10
2019,03,20,01,37,15.10
2019,03,20,01,38,15.10
2019,03,20,01,39,15.00
2019,03,20,01,40,15.00
2019,03,20,01,41,15.00
2019,03,20,01,42,14.90
2019,03,20,01,43,14.90
2019,03,20,01,44,14.90
2019,03,20,01,45,14.80
2019,03,20,01,46,14.80
2019,03,20,01,47,14.70
2019,03,20,01,48,14.70
2019,03,20,01,49,14.70
2019,03,20,01,50,14.60
2019,03,20,01,51,14.60
2019,03,20,01,52,14.60
2019,03,20,01,53,14.60
2019,03,20,01,54,14.50
2019,03,20,01,55,14.50
2019,03,20,01,56,14.60
2019,03,20,01,57,14.60
2019,03,20,01,58,14.60
2019,03,20,01,59,14.50
2019,03,20,02,00,14.50
2019,03,20,02,01,14.60
2019,03,20,02,02,14.60
2019,03,20,02,03,14.60
2019,03,20,02,04,14.70
2019,03,20,02,05,14.70
2019,03,20,02,06,14.70
2019,03,20,02,07,14.70
2019,03,20,02,08,14.70
2019,03,20,02,09,14.70
2019,03,20,02,10,14.70
2019,03,20,02,11,14.70
2019,03,20,02,12,14.70
2019,03,20,02,13,14.70
2019,03,20,02,14,14.70
2019,03,20,02,15,14.70
2019,03,20,02,16,14.70
2019,03,20,02,17,14.60
2019,03,20,02,18,14.60
2019,03,20,02,19,14.60
2019,03,20,02,20,14.60
2019,03,20,02,21,14.50
2019,03,20,02,22,14.50
2019,03,20,02,23,14.40
2019,03,20,02,24,14.40
2019,03,20,02,25,14.40
2019,03,20,02,26,14.40
2019,03,20,02,27,14.30
2019,03,20,02,28,14.30
2019,03,20,02,29,14.30
2019,03,20,02,30,14.30
2019,03,20,02,31,14.30
2019,03,20,02,32,14.30
2019,03,20,02,33,14.30
2019,03,20,02,34,14.30
2019,03,20,02,35,14.30
2019,03,20,02,36,14.30
2019,03,20,02,37,14.30
2019,03,20,02,38,14.30
2019,03,20,02,39,14.30
2019,03,20,02,40,14.30
2019,03,20,02,41,14.30
2019,03,20,02,42,14.30
2019,03,20,02,43,14.40
2019,03,20,02,44,14.40
2019,03,20,02,45,14.40
2019,03,20,02,46,14.40
2019,03,20,02,47,14.40
2019,03,20,02,48,14.30
2019,03,20,02,49,14.30
2019,03,20,02,50,14.40
2019,03,20,02,51,14.40
2019,03,20,02,52,14.40
2019,03,20,02,53,14.40
2019,03,20,02,54,14.50
2019,03,20,02,55,14.50
2019,03,20,02,56,14.50
2019,03,20,02,57,14.50
2019,03,20,02,58,14.50
2019,03,20,02,59,14.50
2019,03,20,03,00,14.50
2019,03,20,03,01,14.50
2019,03,20,03,02,14.50
2019,03,20,03,03,14.50
2019,03,20,03,04,14.50
2019,03,20,03,05,14.50
2019,03,20,03,06,14.40
2019,03,20,03,07,14.40
2019,03,20,03,08,14.40
2019,03,20,03,09,14.40
2019,03,20,03,10,14.30
2019,03,20,03,11,14.30
2019,03,20,03,12,14.30
2019,03,20,03,13,14.20
2019,03,20,03,14,14.20
2019,03,20,03,15,14.20
2019,03,20,03,16,14.20
2019,03,20,03,17,14.20
2019,03,20,03,18,14.20
2019,03,20,03,19,14.20
2019,03,20,03,20,14.20
2019,03,20,03,21,14.20
2019,03,20,03,22,14.20
2019,03,20,03,23,14.20
2019,03,20,03,24,14.20
2019,03,20,03,25,14.20
2019,03,20,03,26,14.20
2019,03,20,03,27,14.30
2019,03,20,03,28,14.30
2019,03,20,03,29,14.30
2019,03,20,03,30,14.20
2019,03,20,03,31,14.20
2019,03,20,03,32,14.20
2019,03,20,03,33,14.20
2019,03,20,03,34,14.20
2019,03,20,03,35,14.20
2019,03,20,03,36,14.20
2019,03,20,03,37,14.20
2019,03,20,03,38,14.20
2019,03,20,03,39,14.20
2019,03,20,03,40,14.20
2019,03,20,03,41,14.20
2019,03,20,03,42,14.20
2019,03,20,03,43,14.20
2019,03,20,03,44,14.20
2019,03,20,03,45,14.10
2019,03,20,03,46,14.10
2019,03,20,03,47,14.10
2019,03,20,03,48,14.00
2019,03,20,03,49,14.00
2019,03,20,03,50,14.00
2019,03,20,03,51,13.90
2019,03,20,03,52,13.90
2019,03,20,03,53,13.90
2019,03,20,03,54,13.90
2019,03,20,03,55,13.90
2019,03,20,03,56,13.90
2019,03,20,03,57,13.80
2019,03,20,03,58,13.80
2019,03,20,03,59,13.80
2019,03,20,04,00,13.80
2019,03,20,04,01,13.80
2019,03,20,04,02,13.80
2019,03,20,04,03,13.80
2019,03,20,04,04,13.70
2019,03,20,04,05,13.70
2019,03,20,04,06,13.60
2019,03,20,04,07,13.50
2019,03,20,04,08,13.50
2019,03,20,04,09,13.40
2019,03,20,04,10,13.40
2019,03,20,04,11,13.40
2019,03,20,04,12,13.40
2019,03,20,04,13,13.40
2019,03,20,04,14,13.40
2019,03,20,04,15,13.40
2019,03,20,04,16,13.40
2019,03,20,04,17,13.40
2019,03,20,04,18,13.50
2019,03,20,04,19,13.50
2019,03,20,04,20,13.60
2019,03,20,04,21,13.60
2019,03,20,04,22,13.60
2019,03,20,04,23,13.60
2019,03,20,04,24,13.60
2019,03,20,04,25,13.50
2019,03,20,04,26,13.50
2019,03,20,04,27,13.50
2019,03,20,04,28,13.50
2019,03,20,04,29,13.50
2019,03,20,04,30,13.50
2019,03,20,04,31,13.50
2019,03,20,04,32,13.60
2019,03,20,04,33,13.60
2019,03,20,04,34,13.50
2019,03,20,04,35,13.50
2019,03,20,04,36,13.50
2019,03,20,04,37,13.50
2019,03,20,04,38,13.40
2019,03,20,04,39,13.40
2019,03,20,04,40,13.40
2019,03,20,04,41,13.40
2019,03,20,04,42,13.40
2019,03,20,04,43,13.40
2019,03,20,04,44,13.30
2019,03,20,04,45,13.30
2019,03,20,04,46,13.30
2019,03,20,04,47,13.30
2019,03,20,04,48,13.30
2019,03,20,04,49,13.30
2019,03,20,04,50,13.20
2019,03,20,04,51,13.20
2019,03,20,04,52,13.20
2019,03,20,04,53,13.20
2019,03,20,04,54,13.20
2019,03,20,04,55,13.20
2019,03,20,04,56,13.20
2019,03,20,04,57,13.20
2019,03,20,04,58,13.20
2019,03,20,04,59,13.20
2019,03,20,05,00,13.20
2019,03,20,05,01,13.20
2019,03,20,05,02,13.20
2019,03,20,05,03,13.30
2019,03,20,05,04,13.30
2019,03,20,05,05,13.30
2019,03,20,05,06,13.30
2019,03,20,05,07,13.30
2019,03,20,05,08,13.30
2019,03,20,05,09,13.30
2019,03,20,05,10,13.40
2019,03,20,05,11,13.40
2019,03,20,05,12,13.40
2019,03,20,05,13,13.40
2019,03,20,05,14,13.40
2019,03,20,05,15,13.40
2019,03,20,05,16,13.40
2019,03,20,05,17,13.40
2019,03,20,05,18,13.30
2019,03,20,05,19,13.30
2019,03,20,05,20,13.30
2019,03,20,05,21,13.30
2019,03,20,05,22,13.30
2019,03,20,05,23,13.30
2019,03,20,05,24,13.30
2019,03,20,05,25,13.30
2019,03,20,05,26,13.20
2019,03,20,05,27,13.20
2019,03,20,05,28,13.20
2019,03,20,05,29,13.20
2019,03,20,05,30,13.20
2019,03,20,05,31,13.20
2019,03,20,05,32,13.20
2019,03,20,05,33,13.20
2019,03,20,05,34,13.20
2019,03,20,05,35,13.20
2019,03,20,05,36,13.20
2019,03,20,05,37,13.20
2019,03,20,05,38,13.20
2019,03,20,05,39,13.20
2019,03,20,05,40,13.30
2019,03,20,05,41,13.30
2019,03,20,05,42,13.20
2019,03,20,05,43,13.20
2019,03,20,05,44,13.20
2019,03,20,05,45,13.20
2019,03,20,05,46,13.20
2019,03,20,05,47,13.20
2019,03,20,05,48,13.20
2019,03,20,05,49,13.20
2019,03,20,05,50,13.10
2019,03,20,05,51,13.10
2019,03,20,05,52,13.10
2019,03,20,05,53,13.10
2019,03,20,05,54,13.10
2019,03,20,05,55,13.10
2019,03,20,05,56,13.10
2019,03,20,05,57,13.00
2019,03,20,05,58,13.00
2019,03,20,05,59,12.90
2019,03,20,06,00,12.90
2019,03,20,06,01,12.90
2019,03,20,06,02,12.80
2019,03,20,06,03,12.80
2019,03,20,06,04,12.80
2019,03,20,06,05,12.70
2019,03,20,06,06,12.70
2019,03,20,06,07,12.70
2019,03,20,06,08,12.60
2019,03,20,06,09,12.60
2019,03,20,06,10,12.60
2019,03,20,06,11,12.60
2019,03,20,06,12,12.60
2019,03,20,06,13,12.60
2019,03,20,06,14,12.60
2019,03,20,06,15,12.60
2019,03,20,06,16,12.60
2019,03,20,06,17,12.50
2019,03,20,06,18,12.50
2019,03,20,06,19,12.50
2019,03,20,06,20,12.40
2019,03,20,06,21,12.40
2019,03,20,06,22,12.40
2019,03,20,06,23,12.40
2019,03,20,06,24,12.40
2019,03,20,06,25,12.40
2019,03,20,06,26,12.40
2019,03,20,06,27,12.40
2019,03,20,06,28,12.30
2019,03,20,06,29,12.30
2019,03,20,06,30,12.30
2019,03,20,06,31,12.20
2019,03,20,06,32,12.20
2019,03,20,06,33,12.20
2019,03,20,06,34,12.10
2019,03,20,06,35,12.10
2019,03,20,06,36,12.10
2019,03,20,06,37,12.10
2019,03,20,06,38,12.10
2019,03,20,06,39,12.10
2019,03,20,06,40,12.10
2019,03,20,06,41,12.10
2019,03,20,06,42,12.10
2019,03,20,06,43,12.10
2019,03,20,06,44,12.10
2019,03,20,06,45,12.00
2019,03,20,06,46,12.00
2019,03,20,06,47,12.00
2019,03,20,06,48,12.00
2019,03,20,06,49,12.00
2019,03,20,06,50,12.10
2019,03,20,06,51,12.10
2019,03,20,06,52,12.10
2019,03,20,06,53,12.10
2019,03,20,06,54,12.00
2019,03,20,06,55,12.00
2019,03,20,06,56,11.90
2019,03,20,06,57,11.90
2019,03,20,06,58,11.90
2019,03,20,06,59,11.90
2019,03,20,07,00,11.80
2019,03,20,07,01,11.80
2019,03,20,07,02,11.80
2019,03,20,07,03,11.80
2019,03,20,07,04,11.80
2019,03,20,07,05,11.80
2019,03,20,07,06,11.80
2019,03,20,07,07,11.80
2019,03,20,07,08,11.80
2019,03,20,07,09,11.80
2019,03,20,07,10,11.80
2019,03,20,07,11,11.80
2019,03,20,07,12,11.80
2019,03,20,07,13,11.80
2019,03,20,07,14,11.80
2019,03,20,07,15,11.80
2019,03,20,07,16,11.80
2019,03,20,07,17,11.80
2019,03,20,07,18,11.80
2019,03,20,07,19,11.80
2019,03,20,07,20,11.80
2019,03,20,07,21,11.90
2019,03,20,07,22,11.90
2019,03,20,07,23,11.90
2019,03,20,07,24,11.90
2019,03,20,07,25,11.90
2019,03,20,07,26,11.90
2019,03,20,07,27,11.90
2019,03,20,07,28,12.00
2019,03,20,07,29,12.00
2019,03,20,07,30,12.00
2019,03,20,07,31,12.00
2019,03,20,07,32,12.00
2019,03,20,07,33,12.00
2019,03,20,07,34,12.00
2019,03,20,07,35,12.00
2019,03,20,07,36,12.00
2019,03,20,07,37,12.00
2019,03,20,07,38,12.00
2019,03,20,07,39,12.00
2019,03,20,07,40,12.00
2019,03,20,07,41,12.00
2019,03,20,07,42,12.00
2019,03,20,07,43,11.90
2019,03,20,07,44,11.90
2019,03,20,07,45,11.90
2019,03,20,07,46,11.90
2019,03,20,07,47,11.90
2019,03,20,07,48,11.90
2019,03,20,07,49,11.90
2019,03,20,07,50,11.80
2019,03,20,07,51,11.80
2019,03,20,07,52,11.90
2019,03,20,07,53,11.90
2019,03,20,07,54,11.90
2019,03,20,07,55,11.90
2019,03,20,07,56,11.90
2019,03,20,07,57,12.00
2019,03,20,07,58,12.00
2019,03,20,07,59,12.00
2019,03,20,08,00,12.10
2019,03,20,08,01,12.10
2019,03,20,08,02,12.10
2019,03,20,08,03,12.10
2019,03,20,08,04,12.20
2019,03,20,08,05,12.20
2019,03,20,08,06,12.20
2019,03,20,08,07,12.20
2019,03,20,08,08,12.20
2019,03,20,08,09,12.20
2019,03,20,08,10,12.20
2019,03,20,08,11,12.20
2019,03,20,08,12,12.20
2019,03,20,08,13,12.20
2019,03,20,08,14,12.20
2019,03,20,08,15,12.20
2019,03,20,08,16,12.20
2019,03,20,08,17,12.30
2019,03,20,08,18,12.30
2019,03,20,08,19,12.30
2019,03,20,08,20,12.40
2019,03,20,08,21,12.40
2019,03,20,08,22,12.50
2019,03,20,08,23,12.50
2019,03,20,08,24,12.60
2019,03,20,08,25,12.60
2019,03,20,08,26,12.60
2019,03,20,08,27,12.60
2019,03,20,08,28,12.60
2019,03,20,08,29,12.60
2019,03,20,08,30,12.60
2019,03,20,08,31,12.60
2019,03,20,08,32,12.60
2019,03,20,08,33,12.70
2019,03,20,08,34,12.70
2019,03,20,08,35,12.70
2019,03,20,08,36,12.70
2019,03,20,08,37,12.70
2019,03,20,08,38,12.70
2019,03,20,08,39,12.70
2019,03,20,08,40,12.80
2019,03,20,08,41,12.80
2019,03,20,08,42,12.80
2019,03,20,08,43,12.90
2019,03,20,08,44,13.00
2019,03,20,08,45,13.10
2019,03,20,08,46,13.10
2019,03,20,08,47,13.10
2019,03,20,08,48,13.20
2019,03,20,08,49,13.20
2019,03,20,08,50,13.30
2019,03,20,08,51,13.30
2019,03,20,08,52,13.40
2019,03,20,08,53,13.40
2019,03,20,08,54,13.50
2019,03,20,08,55,13.60
2019,03,20,08,56,13.60
2019,03,20,08,57,13.70
2019,03,20,08,58,13.70
2019,03,20,08,59,13.80
2019,03,20,09,00,13.90
2019,03,20,09,01,13.90
2019,03,20,09,02,14.00
2019,03,20,09,03,14.00
2019,03,20,09,04,14.10
2019,03,20,09,05,14.10
2019,03,20,09,06,14.20
2019,03,20,09,07,14.30
2019,03,20,09,08,14.30
2019,03,20,09,09,14.30
2019,03,20,09,10,14.40
2019,03,20,09,11,14.50
2019,03,20,09,12,14.50
2019,03,20,09,13,14.60
2019,03,20,09,14,14.60
2019,03,20,09,15,14.60
2019,03,20,09,16,14.70
2019,03,20,09,17,14.70
2019,03,20,09,18,14.80
2019,03,20,09,19,14.90
2019,03,20,09,20,14.90
2019,03,20,09,21,15.00
2019,03,20,09,22,15.00
2019,03,20,09,23,15.10
2019,03,20,09,24,15.20
2019,03,20,09,25,15.20
2019,03,20,09,26,15.20
2019,03,20,09,27,15.30
2019,03,20,09,28,15.30
2019,03,20,09,29,15.40
2019,03,20,09,30,15.40
2019,03,20,09,31,15.50
2019,03,20,09,32,15.50
2019,03,20,09,33,15.50
2019,03,20,09,34,15.60
2019,03,20,09,35,15.60
2019,03,20,09,36,15.70
2019,03,20,09,37,15.70
2019,03,20,09,38,15.80
2019,03,20,09,39,15.80
2019,03,20,09,40,15.80
2019,03,20,09,41,15.80
2019,03,20,09,42,15.80
2019,03,20,09,43,15.80
2019,03,20,09,44,15.90
2019,03,20,09,45,15.90
2019,03,20,09,46,15.90
2019,03,20,09,47,16.00
2019,03,20,09,48,16.00
2019,03,20,09,49,16.10
2019,03,20,09,50,16.10
2019,03,20,09,51,16.10
2019,03,20,09,52,16.20
2019,03,20,09,53,16.20
2019,03,20,09,54,16.20
2019,03,20,09,55,16.30
2019,03,20,09,56,16.30
2019,03,20,09,57,16.30
2019,03,20,09,58,16.30
2019,03,20,09,59,16.40
2019,03,20,10,00,16.40
2019,03,20,10,01,16.50
2019,03,20,10,02,16.60
2019,03,20,10,03,16.60
2019,03,20,10,04,16.60
2019,03,20,10,05,16.70
2019,03,20,10,06,16.70
2019,03,20,10,07,16.70
2019,03,20,10,08,16.80
2019,03,20,10,09,16.80
2019,03,20,10,10,16.80
2019,03,20,10,11,16.80
2019,03,20,10,12,16.80
2019,03,20,10,13,16.80
2019,03,20,10,14,16.90
2019,03,20,10,15,16.90
2019,03,20,10,16,17.00
2019,03,20,10,17,17.00
2019,03,20,10,18,17.10
2019,03,20,10,19,17.20
2019,03,20,10,20,17.20
2019,03,20,10,21,17.20
2019,03,20,10,22,17.20
2019,03,20,10,23,17.20
2019,03,20,10,24,17.30
2019,03,20,10,25,17.30
2019,03,20,10,26,17.30
2019,03,20,10,27,17.40
2019,03,20,10,28,17.40
2019,03,20,10,29,17.40
2019,03,20,10,30,17.50
2019,03,20,10,31,17.50
2019,03,20,10,32,17.60
2019,03,20,10,33,17.60
2019,03,20,10,34,17.60
2019,03,20,10,35,17.60
2019,03,20,10,36,17.60
2019,03,20,10,37,17.60
2019,03,20,10,38,17.60
2019,03,20,10,39,17.60
2019,03,20,10,40,17.60
2019,03,20,10,41,17.60
2019,03,20,10,42,17.70
2019,03,20,10,43,17.80
2019,03,20,10,44,17.80
2019,03,20,10,45,17.80
2019,03,20,10,46,17.80
2019,03,20,10,47,17.70
2019,03,20,10,48,17.70
2019,03,20,10,49,17.70
2019,03,20,10,50,17.70
2019,03,20,10,51,17.70
2019,03,20,10,52,17.70
2019,03,20,10,53,17.70
2019,03,20,10,54,17.70
2019,03,20,10,55,17.70
2019,03,20,10,56,17.70
2019,03,20,10,57,17.70
2019,03,20,10,58,17.80
2019,03,20,10,59,17.80
2019,03,20,11,00,17.80
2019,03,20,11,01,17.80
2019,03,20,11,02,17.80
2019,03,20,11,03,17.80
2019,03,20,11,04,17.90
2019,03,20,11,05,17.90
2019,03,20,11,06,17.90
2019,03,20,11,07,18.00
2019,03,20,11,08,18.10
2019,03,20,11,09,18.20
2019,03,20,11,10,18.30
2019,03,20,11,11,18.30
2019,03,20,11,12,18.40
2019,03,20,11,13,18.40
2019,03,20,11,14,18.30
2019,03,20,11,15,18.30
2019,03,20,11,16,18.40
2019,03,20,11,17,18.40
2019,03,20,11,18,18.50
2019,03,20,11,19,18.50
2019,03,20,11,20,18.60
2019,03,20,11,21,18.60
2019,03,20,11,22,18.60
2019,03,20,11,23,18.50
2019,03,20,11,24,18.50
2019,03,20,11,25,18.40
2019,03,20,11,26,18.40
2019,03,20,11,27,18.50
2019,03,20,11,28,18.50
2019,03,20,11,29,18.60
2019,03,20,11,30,18.60
2019,03,20,11,31,18.70
2019,03,20,11,32,18.70
2019,03,20,11,33,18.70
2019,03,20,11,34,18.80
2019,03,20,11,35,18.80
2019,03,20,11,36,18.80
2019,03,20,11,37,18.80
2019,03,20,11,38,18.80
2019,03,20,11,39,18.80
2019,03,20,11,40,18.80
2019,03,20,11,41,18.90
2019,03,20,11,42,19.00
2019,03,20,11,43,19.10
2019,03,20,11,44,19.20
2019,03,20,11,45,19.20
2019,03,20,11,46,19.20
2019,03,20,11,47,19.20
2019,03,20,11,48,19.30
2019,03,20,11,49,19.30
2019,03,20,11,50,19.30
2019,03,20,11,51,19.40
2019,03,20,11,52,19.30
2019,03,20,11,53,19.20
2019,03,20,11,54,19.10
2019,03,20,11,55,19.10
2019,03,20,11,56,19.00
2019,03,20,11,57,19.00
2019,03,20,11,58,19.10
2019,03,20,11,59,19.10
2019,03,20,12,00,19.20
2019,03,20,12,01,19.20
2019,03,20,12,02,19.30
2019,03,20,12,03,19.30
2019,03,20,12,04,19.30
2019,03,20,12,05,19.30
2019,03,20,12,06,19.40
2019,03,20,12,07,19.40
2019,03,20,12,08,19.40
2019,03,20,12,09,19.40
2019,03,20,12,10,19.30
2019,03,20,12,11,19.20
2019,03,20,12,12,19.20
2019,03,20,12,13,19.20
2019,03,20,12,14,19.20
2019,03,20,12,15,19.20
2019,03,20,12,16,19.10
2019,03,20,12,17,19.10
2019,03,20,12,18,19.10
2019,03,20,12,19,19.10
2019,03,20,12,20,19.10
2019,03,20,12,21,19.10
2019,03,20,12,22,19.00
2019,03,20,12,23,19.00
2019,03,20,12,24,19.10
2019,03,20,12,25,19.10
2019,03,20,12,26,19.10
2019,03,20,12,27,19.20
2019,03,20,12,28,19.20
2019,03,20,12,29,19.20
2019,03,20,12,30,19.20
2019,03,20,12,31,19.20
2019,03,20,12,32,19.20
2019,03,20,12,33,19.30
2019,03,20,12,34,19.30
2019,03,20,12,35,19.30
2019,03,20,12,36,19.20
2019,03,20,12,37,19.10
2019,03,20,12,38,19.10
2019,03,20,12,39,19.10
2019,03,20,12,40,19.10
2019,03,20,12,41,19.10
2019,03,20,12,42,19.00
2019,03,20,12,43,19.00
2019,03,20,12,44,18.90
2019,03,20,12,45,18.90
2019,03,20,12,46,18.90
2019,03,20,12,47,19.00
2019,03,20,12,48,19.00
2019,03,20,12,49,19.10
2019,03,20,12,50,19.10
2019,03,20,12,51,19.20
2019,03,20,12,52,19.30
2019,03,20,12,53,19.30
2019,03,20,12,54,19.40
2019,03,20,12,55,19.50
2019,03,20,12,56,19.60
2019,03,20,12,57,19.70
2019,03,20,12,58,19.70
2019,03,20,12,59,19.90
2019,03,20,13,00,20.00
2019,03,20,13,01,20.10
2019,03,20,13,02,20.20
2019,03,20,13,03,20.30
2019,03,20,13,04,20.30
2019,03,20,13,05,20.30
2019,03,20,13,06,20.40
2019,03,20,13,07,20.40
2019,03,20,13,08,20.40
2019,03,20,13,09,20.50
2019,03,20,13,10,20.60
2019,03,20,13,11,20.70
2019,03,20,13,12,20.80
2019,03,20,13,13,20.90
2019,03,20,13,14,21.00
2019,03,20,13,15,21.00
2019,03,20,13,16,21.10
2019,03,20,13,17,21.10
2019,03,20,13,18,21.10
2019,03,20,13,19,21.10
2019,03,20,13,20,21.20
2019,03,20,13,21,21.20
2019,03,20,13,22,21.20
2019,03,20,13,23,21.30
2019,03,20,13,24,21.30
2019,03,20,13,25,21.30
2019,03,20,13,26,21.30
2019,03,20,13,27,21.30
2019,03,20,13,28,21.20
2019,03,20,13,29,21.20
2019,03,20,13,30,21.30
2019,03,20,13,31,21.30
2019,03,20,13,32,21.20
2019,03,20,13,33,21.20
2019,03,20,13,34,21.30
2019,03,20,13,35,21.30
2019,03,20,13,36,21.40
2019,03,20,13,37,21.50
2019,03,20,13,38,21.60
2019,03,20,13,39,21.60
2019,03,20,13,40,21.60
2019,03,20,13,41,21.70
2019,03,20,13,42,21.70
2019,03,20,13,43,21.70
2019,03,20,13,44,21.60
2019,03,20,13,45,21.60
2019,03,20,13,46,21.70
2019,03,20,13,47,21.70
2019,03,20,13,48,21.70
2019,03,20,13,49,21.80
2019,03,20,13,50,21.80
2019,03,20,13,51,21.90
2019,03,20,13,52,21.90
2019,03,20,13,53,22.00
2019,03,20,13,54,22.10
2019,03,20,13,55,22.20
2019,03,20,13,56,22.20
2019,03,20,13,57,22.20
2019,03,20,13,58,22.20
2019,03,20,13,59,22.20
2019,03,20,14,00,22.10
2019,03,20,14,01,22.10
2019,03,20,14,02,22.10
2019,03,20,14,03,22.10
2019,03,20,14,04,22.10
2019,03,20,14,05,22.00
2019,03,20,14,06,21.90
2019,03,20,14,07,21.90
2019,03,20,14,08,21.90
2019,03,20,14,09,21.90
2019,03,20,14,10,21.90
2019,03,20,14,11,21.90
2019,03,20,14,12,21.90
2019,03,20,14,13,21.90
2019,03,20,14,14,21.90
2019,03,20,14,15,21.90
2019,03,20,14,16,21.90
2019,03,20,14,17,22.00
2019,03,20,14,18,21.90
2019,03,20,14,19,21.90
2019,03,20,14,20,21.90
2019,03,20,14,21,21.80
2019,03,20,14,22,21.90
2019,03,20,14,23,21.90
2019,03,20,14,24,22.00
2019,03,20,14,25,22.00
2019,03,20,14,26,22.00
2019,03,20,14,27,21.90
2019,03,20,14,28,21.80
2019,03,20,14,29,21.80
2019,03,20,14,30,21.70
2019,03,20,14,31,21.60
2019,03,20,14,32,21.60
2019,03,20,14,33,21.50
2019,03,20,14,34,21.50
2019,03,20,14,35,21.40
2019,03,20,14,36,21.20
2019,03,20,14,37,21.00
2019,03,20,14,38,20.80
2019,03,20,14,39,20.60
2019,03,20,14,40,20.50
2019,03,20,14,41,20.40
2019,03,20,14,42,20.30
2019,03,20,14,43,20.20
2019,03,20,14,44,20.10
2019,03,20,14,45,20.10
2019,03,20,14,46,20.10
2019,03,20,14,47,20.00
2019,03,20,14,48,20.00
2019,03,20,14,49,19.90
2019,03,20,14,50,19.90
2019,03,20,14,51,19.80
2019,03,20,14,52,19.80
2019,03,20,14,53,19.70
2019,03,20,14,54,19.70
2019,03,20,14,55,19.70
2019,03,20,14,56,19.70
2019,03,20,14,57,19.70
2019,03,20,14,58,19.70
2019,03,20,14,59,19.60
2019,03,20,15,00,19.50
2019,03,20,15,01,19.40
2019,03,20,15,02,19.30
2019,03,20,15,03,19.20
2019,03,20,15,04,19.10
2019,03,20,15,05,19.00
2019,03,20,15,06,18.90
2019,03,20,15,07,18.80
2019,03,20,15,08,18.70
2019,03,20,15,09,18.70
2019,03,20,15,10,18.60
2019,03,20,15,11,18.50
2019,03,20,15,12,18.40
2019,03,20,15,13,18.40
2019,03,20,15,14,18.30
2019,03,20,15,15,18.30
2019,03,20,15,16,18.30
2019,03,20,15,17,18.30
2019,03,20,15,18,18.30
2019,03,20,15,19,18.40
2019,03,20,15,20,18.40
2019,03,20,15,21,18.30
2019,03,20,15,22,18.30
2019,03,20,15,23,18.20
2019,03,20,15,24,18.10
2019,03,20,15,25,18.10
2019,03,20,15,26,18.00
2019,03,20,15,27,17.90
2019,03,20,15,28,17.90
2019,03,20,15,29,17.90
2019,03,20,15,30,17.90
2019,03,20,15,31,17.90
2019,03,20,15,32,17.90
2019,03,20,15,33,17.90
2019,03,20,15,34,17.90
2019,03,20,15,35,17.90
2019,03,20,15,36,17.80
2019,03,20,15,37,17.90
2019,03,20,15,38,17.90
2019,03,20,15,39,17.90
2019,03,20,15,40,17.80
2019,03,20,15,41,17.80
2019,03,20,15,42,17.70
2019,03,20,15,43,17.60
2019,03,20,15,44,17.50
2019,03,20,15,45,17.40
2019,03,20,15,46,17.30
2019,03,20,15,47,17.20
2019,03,20,15,48,17.20
2019,03,20,15,49,17.10
2019,03,20,15,50,17.10
2019,03,20,15,51,17.00
2019,03,20,15,52,17.00
2019,03,20,15,53,16.90
2019,03,20,15,54,16.80
2019,03,20,15,55,16.70
2019,03,20,15,56,16.60
2019,03,20,15,57,16.50
2019,03,20,15,58,16.50
2019,03,20,15,59,16.40
2019,03,20,16,00,16.30
2019,03,20,16,01,16.30
2019,03,20,16,02,16.20
2019,03,20,16,03,16.10
2019,03,20,16,04,16.00
2019,03,20,16,05,15.90
2019,03,20,16,06,15.80
2019,03,20,16,07,15.80
2019,03,20,16,08,15.70
2019,03,20,16,09,15.60
2019,03,20,16,10,15.60
2019,03,20,16,11,15.60
2019,03,20,16,12,15.50
2019,03,20,16,13,15.50
2019,03,20,16,14,15.50
2019,03,20,16,15,15.50
2019,03,20,16,16,15.50
2019,03,20,16,17,15.50
2019,03,20,16,18,15.60
2019,03,20,16,19,15.60
2019,03,20,16,20,15.60
2019,03,20,16,21,15.70
2019,03,20,16,22,15.70
2019,03,20,16,23,15.70
2019,03,20,16,24,15.70
2019,03,20,16,25,15.70
2019,03,20,16,26,15.70
2019,03,20,16,27,15.60
2019,03,20,16,28,15.60
2019,03,20,16,29,15.60
2019,03,20,16,30,15.60
2019,03,20,16,31,15.50
2019,03,20,16,32,15.50
2019,03,20,16,33,15.50
2019,03,20,16,34,15.50
2019,03,20,16,35,15.40
2019,03,20,16,36,15.40
2019,03,20,16,37,15.40
2019,03,20,16,38,15.30
2019,03,20,16,39,15.30
2019,03,20,16,40,15.20
2019,03,20,16,41,15.10
2019,03,20,16,42,15.10
2019,03,20,16,43,15.00
2019,03,20,16,44,15.00
2019,03,20,16,45,15.00
2019,03,20,16,46,15.00
2019,03,20,16,47,15.00
2019,03,20,16,48,15.00
2019,03,20,16,49,15.00
2019,03,20,16,50,15.00
2019,03,20,16,51,15.00
2019,03,20,16,52,15.00
2019,03,20,16,53,15.00
2019,03,20,16,54,15.00
2019,03,20,16,55,15.00
2019,03,20,16,56,15.00
2019,03,20,16,57,15.10
2019,03,20,16,58,15.10
2019,03,20,16,59,15.20
2019,03,20,17,00,15.20
2019,03,20,17,01,15.20
2019,03,20,17,02,15.20
2019,03,20,17,03,15.20
2019,03,20,17,04,15.10
2019,03,20,17,05,15.10
2019,03,20,17,06,15.10
2019,03,20,17,07,15.10
2019,03,20,17,08,15.10
2019,03,20,17,09,15.10
2019,03,20,17,10,15.00
2019,03,20,17,11,15.00
2019,03,20,17,12,14.90
2019,03,20,17,13,14.90
2019,03,20,17,14,14.90
2019,03,20,17,15,14.90
2019,03,20,17,16,14.90
2019,03,20,17,17,14.90
2019,03,20,17,18,14.90
2019,03,20,17,19,14.90